#timestamp,LO_Frequency,Hit 
1500120015.0,286046695.1,N
1500120015.9,286046695.1,N
1500120035.8,286046691.9,N
1500120055.6,286046702.1,N
1500120075.4,286046716.7,N
1500120095.3,286046723.6,N
1500120115.1,286046729.1,N
1500120135.8,286046725.3,N
1500120155.7,286046733.4,N
1500120175.5,286046734.8,N
1500120195.3,286046731.1,N
1500120215.2,286046732.6,N
1500120235.9,286046726.3,N
1500120255.7,286046733.7,N
1500120275.6,286046732.2,N
1500120295.4,286046724.1,N
1500120315.2,286046733.1,N
1500120335.1,286046738.2,N
1500120336.0,286046738.2,N
1500120355.8,286046748.8,N
1500120375.6,286046764.3,N
1500120395.5,286046756.5,N
1500120415.3,286046748.5,N
1500120435.1,286046740.6,N
1500120455.8,286046733.1,N
1500120475.7,286046722.1,N
1500120495.5,286046716.4,N
1500120515.3,286046706.9,N
1500120535.2,286046704.6,N
1500120555.9,286046703.8,N
1500120575.7,286046703.2,N
1500120595.6,286046697.3,N
1500120615.4,286046696.8,N
1500120635.2,286046694.6,N
1500120655.1,286046696.3,N
1500120656.0,286046696.3,N
1500120675.8,286046702.2,N
1500120695.6,286046715.6,N
1500120715.5,286046722.1,N
1500120735.3,286046729.4,N
1500120755.1,286046733.5,N
1500120775.9,286046733.0,N
1500120795.7,286046729.4,N
1500120815.5,286046730.9,N
1500120835.3,286046738.5,N
1500120855.2,286046743.1,N
1500120875.0,286046749.0,N
1500120875.9,286046749.0,N
1500120895.7,286046747.5,N
1500120915.6,286046744.7,N
1500120935.4,286046744.0,N
1500120955.2,286046745.0,N
1500120975.1,286046742.0,N
1500120976.0,286046742.0,N
1500120995.8,286046743.5,N
1500121015.6,286046736.1,N
1500121035.5,286046735.3,N
1500121055.3,286046735.5,N
1500121075.1,286046740.7,N
1500121095.8,286046743.7,N
1500121115.7,286046750.2,N
1500121135.5,286046761.1,N
1500121155.3,286046760.1,N
1500121175.2,286046751.8,N
1500121195.0,286046753.1,N
1500121195.9,286046753.1,N
1500121215.7,286046752.2,N
1500121235.6,286046748.3,N
1500121255.4,286046747.5,N
1500121275.2,286046739.3,N
1500121295.1,286046730.9,N
1500121296.0,286046730.9,N
1500121315.8,286046727.8,N
1500121335.6,286046734.7,N
1500121355.5,286046741.7,N
1500121375.3,286046741.8,N
1500121395.1,286046737.3,N
1500121415.9,286046750.3,N
1500121435.7,286046757.1,N
1500121455.5,286046757.0,N
1500121475.3,286046752.4,N
1500121495.2,286046749.3,N
1500121515.0,286046753.1,N
1500121515.9,286046753.1,N
1500121535.7,286046748.9,N
1500121555.6,286046747.1,N
1500121575.4,286046751.3,N
1500121595.2,286046758.7,N
1500121615.1,286046761.8,N
1500121616.0,286046761.8,N
1500121635.8,286046762.8,N
1500121655.6,286046758.2,N
1500121675.5,286046762.3,N
1500121695.3,286046759.1,N
1500121715.1,286046762.3,N
1500121735.9,286046760.3,N
1500121755.7,286046762.1,N
1500121775.5,286046757.1,N
1500121795.3,286046756.1,N
1500121815.2,286046759.1,N
1500121835.0,286046760.9,N
1500121835.9,286046760.9,N
1500121855.7,286046759.7,N
1500121875.6,286046768.1,N
1500121895.4,286046770.9,N
1500121915.2,286046771.4,N
1500121935.1,286046777.3,N
1500121936.0,286046777.3,N
1500121955.8,286046769.4,N
1500121975.6,286046762.3,N
1500121995.5,286046757.8,N
1500122015.3,286046759.1,N
1500122035.1,286046769.5,N
1500122055.9,286046777.7,N
1500122075.7,286046772.5,N
1500122095.5,286046764.6,N
1500122115.4,286046761.3,N
1500122135.2,286046759.3,N
1500122155.0,286046763.8,N
1500122155.9,286046763.8,N
1500122175.8,286046766.7,N
1500122195.6,286046761.9,N
1500122215.4,286046760.9,N
1500122235.2,286046765.1,N
1500122255.1,286046762.1,N
1500122256.0,286046762.1,N
1500122275.8,286046753.8,N
1500122295.6,286046759.3,N
1500122315.5,286046759.6,N
1500122335.3,286046754.0,N
1500122355.1,286046750.3,N
1500122375.9,286046741.3,N
1500122395.7,286046734.1,N
1500122415.5,286046736.7,N
1500122435.4,286046726.9,N
1500122455.2,286046718.8,N
1500122475.0,286046718.0,N
1500122475.9,286046718.0,N
1500122495.8,286046721.0,N
1500122515.6,286046724.9,N
1500122535.4,286046722.7,N
1500122555.3,286046719.1,N
1500122575.1,286046715.9,N
1500122576.0,286046715.9,N
1500122595.8,286046714.3,N
1500122615.7,286046713.0,N
1500122635.5,286046713.1,N
1500122655.3,286046709.1,N
1500122675.1,286046715.4,N
1500122695.9,286046730.3,N
1500122715.7,286046739.0,N
1500122735.5,286046752.8,N
1500122755.4,286046754.8,N
1500122775.2,286046755.1,N
1500122795.0,286046754.8,N
1500122795.9,286046754.8,N
1500122815.8,286046753.2,N
1500122835.6,286046754.7,N
1500122855.4,286046750.4,N
1500122875.3,286046743.1,N
1500122895.1,286046735.3,N
1500122896.0,286046735.3,N
1500122915.8,286046735.0,N
1500122935.7,286046736.4,N
1500122955.5,286046740.4,N
1500122975.3,286046741.1,N
1500122995.2,286046747.3,N
1500123015.9,286046752.4,N
1500123035.7,286046752.1,N
1500123055.6,286046755.6,N
1500123075.4,286046758.6,N
1500123095.2,286046761.1,N
1500123115.1,286046759.1,N
1500123116.0,286046759.1,N
1500123135.8,286046756.8,N
1500123155.6,286046761.1,N
1500123175.5,286046762.5,N
1500123195.3,286046755.9,N
1500123215.1,286046750.1,N
1500123235.8,286046762.2,N
1500123255.7,286046762.3,N
1500123275.5,286046756.5,N
1500123295.3,286046756.1,N
1500123315.2,286046748.6,N
1500123335.0,286046750.0,N
1500123335.9,286046750.0,N
1500123355.7,286046742.4,N
1500123375.6,286046740.2,N
1500123395.4,286046748.4,N
1500123415.2,286046745.5,N
1500123435.1,286046742.6,N
1500123436.0,286046742.6,N
1500123455.8,286046743.3,N
1500123475.6,286046739.8,N
1500123495.5,286046732.3,N
1500123515.3,286046728.4,N
1500123535.1,286046726.6,N
1500123555.9,286046727.6,N
1500123575.7,286046723.2,N
1500123595.5,286046729.2,N
